CW6144 Weather Reports


time (UTC)temp
C
wind
direction
speed
KPH
gust
KPH
rain 1hr
cm
rain 24hr
cm
rain mn
cm
humidity
%
barometer
mb
20260507070512 6 309 3.2 6.4 0.00 0.03 0.00 79 1018.4
20260507070040 6 335 1.6 4.8 0.00 0.03 0.00 79 1018.4
20260507065510 6 352 1.6 8.0 0.00 0.03 0.00 79 1018.3
20260507065003 6 334 1.6 9.7 0.00 0.05 0.00 79 1018.3
20260507064517 6 332 4.8 9.7 0.00 0.05 0.00 80 1018.4
20260507064003 6 327 4.8 6.4 0.00 0.05 0.00 81 1018.4
20260507063507 6 313 3.2 6.4 0.00 0.05 0.00 82 1018.4
20260507063021 6 304 3.2 8.0 0.00 0.05 0.00 83 1018.5
20260507062510 6 299 3.2 8.0 0.00 0.05 0.00 84 1018.5
20260507062006 6 294 1.6 4.8 0.00 0.05 0.00 86 1018.3
20260507061527 6 334 1.6 4.8 0.00 0.05 0.00 86 1018.3
20260507061003 6 346 1.6 3.2 0.00 0.05 0.00 87 1018.4
20260507060503 6 337 1.6 3.2 0.00 0.05 0.00 87 1018.5
20260507060013 6 19 1.6 3.2 0.00 0.05 0.00 87 1018.4
20260507055503 6 352 0.0 3.2 0.00 0.05 0.00 87 1018.3
20260507055003 6 330 1.6 4.8 0.00 0.05 0.00 88 1018.4
20260507054514 6 336 1.6 4.8 0.00 0.05 0.00 88 1018.5
20260507054004 6 327 0.0 4.8 0.00 0.05 0.00 89 1018.4
20260507053504 6 17 0.0 3.2 0.00 0.05 0.00 89 1018.3
20260507053018 6 17 0.0 3.2 0.00 0.05 0.00 90 1018.1
20260507052506 6 17 0.0 3.2 0.00 0.05 0.00 90 1018.1
20260507052003 6 21 1.6 3.2 0.00 0.05 0.00 89 1018.1
20260507051503 6 21 1.6 3.2 0.00 0.05 0.00 90 1018.1
20260507051008 6 306 0.0 3.2 0.00 0.05 0.00 90 1018.0
20260507050503 6 306 0.0 3.2 0.00 0.05 0.00 89 1017.9
20260507050029 6 5 0.0 3.2 0.00 0.05 0.00 89 1018.0
20260507045503 6 5 0.0 3.2 0.00 0.05 0.05 89 1017.9
20260507045003 6 5 0.0 3.2 0.00 0.05 0.05 89 1017.9
20260507044511 6 5 0.0 0.0 0.00 0.05 0.05 89 1017.8
20260507044003 6 5 0.0 0.0 0.00 0.05 0.05 89 1017.7
20260507043504 6 5 0.0 3.2 0.00 0.05 0.05 89 1017.7
20260507043017 6 5 0.0 3.2 0.00 0.05 0.05 89 1017.8
20260507042505 6 5 0.0 3.2 0.00 0.05 0.05 89 1017.8
20260507042014 6 5 0.0 3.2 0.00 0.05 0.05 89 1017.6
20260507041522 6 5 0.0 3.2 0.00 0.05 0.05 89 1017.8
20260507041008 6 5 0.0 3.2 0.00 0.05 0.05 89 1017.8
20260507040509 6 5 0.0 3.2 0.00 0.05 0.05 89 1017.7
20260507040023 6 5 0.0 3.2 0.00 0.05 0.05 89 1017.5
20260507035504 6 5 0.0 3.2 0.00 0.05 0.05 88 1017.6
20260507035008 6 5 0.0 3.2 0.00 0.05 0.05 88 1017.5
20260507034510 6 5 0.0 3.2 0.00 0.05 0.05 88 1017.5
20260507034003 6 5 0.0 3.2 0.00 0.05 0.05 88 1017.6
20260507033503 6 5 0.0 0.0 0.00 0.05 0.05 87 1017.6
20260507033013 6 5 0.0 3.2 0.00 0.05 0.05 87 1017.6
20260507032508 7 5 0.0 3.2 0.00 0.05 0.05 87 1017.5
20260507032006 7 5 0.0 3.2 0.00 0.05 0.05 87 1017.4
20260507031521 7 5 0.0 3.2 0.00 0.05 0.05 87 1017.5
20260507031009 7 5 0.0 0.0 0.00 0.05 0.05 87 1017.4
20260507030507 7 5 0.0 0.0 0.00 0.05 0.05 87 1017.4
20260507030022 7 5 0.0 0.0 0.00 0.05 0.05 87 1017.4
20260507025507 7 5 0.0 0.0 0.00 0.05 0.05 86 1017.3
20260507025008 7 5 0.0 3.2 0.00 0.05 0.05 86 1017.3
20260507024508 7 5 0.0 3.2 0.00 0.05 0.05 86 1017.2
20260507024007 7 5 0.0 1.6 0.00 0.05 0.05 86 1017.2
20260507023509 7 5 0.0 3.2 0.00 0.05 0.05 85 1017.1
20260507023026 7 5 0.0 3.2 0.00 0.05 0.05 85 1017.0
20260507022503 7 5 0.0 1.6 0.00 0.05 0.05 85 1017.1
20260507022005 8 5 0.0 1.6 0.00 0.05 0.05 84 1017.2
20260507021514 8 5 0.0 3.2 0.00 0.05 0.05 84 1017.0
20260507021006 8 5 0.0 3.2 0.00 0.05 0.05 84 1017.0
20260507020504 8 5 0.0 3.2 0.00 0.05 0.05 83 1017.0
20260507020022 8 5 0.0 3.2 0.00 0.05 0.05 82 1016.9
20260507015506 9 5 1.6 3.2 0.00 0.05 0.05 81 1017.0
20260507015006 9 5 0.0 3.2 0.00 0.05 0.05 81 1016.9
20260507014527 10 5 0.0 0.0 0.00 0.05 0.05 81 1016.9
20260507014007 10 5 0.0 3.2 0.00 0.05 0.05 81 1016.8
20260507013508 10 5 0.0 3.2 0.00 0.05 0.05 80 1016.8
20260507013033 10 5 0.0 3.2 0.00 0.05 0.05 79 1016.7
20260507012503 10 5 0.0 3.2 0.00 0.05 0.05 79 1016.6
20260507012004 11 5 0.0 3.2 0.00 0.05 0.05 77 1016.6
20260507011523 11 5 0.0 0.0 0.00 0.05 0.05 76 1016.7
20260507011005 11 5 0.0 0.0 0.00 0.05 0.05 76 1016.7
20260507010507 11 5 0.0 1.6 0.00 0.05 0.05 73 1016.7
20260507010014 11 5 0.0 3.2 0.00 0.05 0.05 73 1016.7
20260507005508 11 17 0.0 3.2 0.00 0.05 0.05 73 1016.6
20260507005010 11 17 0.0 1.6 0.00 0.05 0.05 73 1016.5
20260507004520 11 17 1.6 3.2 0.00 0.05 0.05 73 1016.5
20260507004007 11 17 0.0 3.2 0.00 0.05 0.05 71 1016.6
20260507003509 11 17 1.6 3.2 0.00 0.05 0.05 71 1016.5
20260507003026 11 9 3.2 4.8 0.00 0.05 0.05 71 1016.5
20260507002509 11 24 0.0 6.4 0.00 0.05 0.05 70 1016.9
20260507002011 11 32 3.2 6.4 0.00 0.05 0.05 69 1016.4
20260507001511 11 16 1.6 4.8 0.00 0.05 0.05 69 1016.6
20260507001004 11 5 1.6 4.8 0.00 0.05 0.05 70 1016.4
20260507000504 11 345 3.2 8.0 0.00 0.05 0.05 68 1016.8
20260507000012 11 20 3.2 8.0 0.00 0.05 0.05 68 1016.6
20260506235507 11 50 4.8 9.7 0.00 0.05 0.05 67 1016.5
20260506235006 11 28 6.4 12.9 0.00 0.05 0.05 67 1016.5
20260506234516 12 5 6.4 14.5 0.00 0.05 0.05 65 1016.5
20260506234006 12 12 3.2 14.5 0.00 0.05 0.05 66 1016.4
20260506233510 12 19 6.4 16.1 0.00 0.05 0.05 66 1016.2
20260506233024 12 20 3.2 16.1 0.00 0.05 0.05 66 1016.3
20260506232508 12 322 6.4 12.9 0.00 0.05 0.05 67 1016.0
20260506232006 11 17 4.8 12.9 0.00 0.05 0.05 66 1016.1
20260506231525 11 30 4.8 12.9 0.00 0.05 0.05 66 1016.4
20260506231007 11 19 6.4 19.3 0.00 0.05 0.05 66 1016.2
20260506230509 11 9 6.4 19.3 0.00 0.05 0.05 67 1016.0
20260506230014 11 24 6.4 20.9 0.00 0.05 0.05 67 1015.8
20260506225505 11 19 12.9 20.9 0.00 0.05 0.05 67 1015.9
20260506225018 11 44 6.4 17.7 0.00 0.05 0.05 68 1015.6
20260506224517 11 9 11.3 19.3 0.00 0.05 0.05 68 1015.2
20260506224006 11 24 9.7 19.3 0.00 0.05 0.05 68 1015.2
20260506223506 11 16 6.4 20.9 0.00 0.05 0.05 70 1015.3
20260506223020 11 36 9.7 20.9 0.00 0.05 0.05 71 1015.0
20260506222509 11 17 4.8 12.9 0.00 0.05 0.05 72 1015.0
20260506222013 11 20 4.8 12.9 0.00 0.05 0.05 72 1015.0
20260506221525 11 5 4.8 14.5 0.00 0.05 0.05 71 1015.2
20260506221011 11 336 8.0 16.1 0.00 0.05 0.05 69 1015.2
20260506220509 11 344 8.0 17.7 0.00 0.05 0.05 69 1015.1
20260506220028 11 17 9.7 17.7 0.00 0.05 0.05 68 1015.0
20260506215510 11 331 8.0 17.7 0.00 0.05 0.05 68 1015.2
20260506215004 11 360 4.8 19.3 0.00 0.05 0.05 68 1015.5
20260506214513 12 18 8.0 19.3 0.00 0.05 0.05 67 1015.5
20260506214004 12 341 8.0 16.1 0.00 0.05 0.05 65 1015.5
20260506213506 12 305 9.7 22.5 0.00 0.05 0.05 67 1015.5
20260506213018 12 343 6.4 22.5 0.00 0.05 0.05 67 1015.3
20260506212507 12 352 9.7 20.9 0.00 0.05 0.05 64 1015.4
20260506212010 12 346 11.3 20.9 0.00 0.05 0.05 64 1015.4
20260506211525 12 30 12.9 24.1 0.00 0.05 0.05 65 1015.5
20260506211008 12 67 8.0 24.1 0.00 0.05 0.05 65 1015.5
20260506210512 12 59 14.5 24.1 0.00 0.05 0.05 63 1015.5
20260506210031 12 317 8.0 20.9 0.00 0.05 0.05 62 1015.6
20260506205511 12 26 9.7 19.3 0.00 0.05 0.05 64 1015.6
20260506205009 12 16 6.4 20.9 0.00 0.05 0.05 67 1015.6
20260506204504 12 15 6.4 20.9 0.00 0.05 0.05 66 1015.8
20260506204004 12 57 9.7 19.3 0.00 0.05 0.05 67 1015.8
20260506203503 12 352 11.3 17.7 0.00 0.05 0.05 68 1016.0
20260506203005 11 23 6.4 16.1 0.00 0.05 0.05 67 1016.1
20260506202503 11 352 6.4 16.1 0.00 0.05 0.05 69 1016.3
20260506202003 11 347 4.8 19.3 0.00 0.05 0.05 71 1016.6
20260506201504 11 335 9.7 19.3 0.00 0.05 0.05 68 1016.4
20260506201003 11 22 6.4 14.5 0.00 0.05 0.05 70 1016.4
20260506200503 11 53 4.8 14.5 0.00 0.05 0.05 72 1016.6
20260506200004 11 334 4.8 8.0 0.00 0.05 0.05 74 1016.8
20260506195502 10 32 3.2 6.4 0.00 0.05 0.05 75 1016.8
20260506195002 10 9 3.2 11.3 0.00 0.05 0.05 74 1016.7
20260506194506 10 5 4.8 11.3 0.00 0.05 0.05 73 1016.8
20260506194003 10 9 4.8 9.7 0.00 0.05 0.05 75 1017.2
20260506193503 10 138 1.6 8.0 0.00 0.05 0.05 76 1017.2
20260506193003 10 287 3.2 14.5 0.00 0.05 0.05 75 1017.2
20260506192503 10 334 6.4 16.1 0.00 0.05 0.05 73 1017.2
20260506192006 10 351 6.4 16.1 0.00 0.05 0.05 75 1017.2
20260506191504 10 331 8.0 16.1 0.00 0.05 0.05 75 1017.2
20260506191002 10 352 6.4 14.5 0.00 0.05 0.05 76 1017.3
20260506190503 10 348 4.8 14.5 0.00 0.05 0.05 76 1017.1
20260506190004 10 11 6.4 17.7 0.00 0.05 0.05 73 1017.1
20260506185502 10 352 6.4 17.7 0.00 0.05 0.05 75 1017.3
20260506185002 10 328 9.7 17.7 0.00 0.05 0.05 75 1017.3
20260506184506 10 331 11.3 17.7 0.00 0.05 0.05 73 1017.1
20260506184004 10 9 4.8 19.3 0.00 0.05 0.05 76 1016.8
20260506183505 10 31 12.9 22.5 0.00 0.05 0.05 73 1016.7
20260506183008 11 18 11.3 22.5 0.00 0.05 0.05 73 1016.9
20260506182503 10 15 6.4 19.3 0.00 0.05 0.05 75 1017.0
20260506182004 10 42 11.3 19.3 0.00 0.05 0.05 75 1017.1
20260506181507 10 16 8.0 20.9 0.00 0.05 0.05 77 1017.2
20260506181004 10 36 8.0 20.9 0.00 0.05 0.05 74 1017.4
20260506180504 10 344 6.4 20.9 0.00 0.05 0.05 74 1017.3
20260506180012 10 360 9.7 20.9 0.00 0.05 0.05 77 1017.4
20260506175501 10 39 6.4 17.7 0.00 0.05 0.05 75 1017.3
20260506175002 10 351 11.3 17.7 0.00 0.05 0.05 76 1017.5
20260506174504 10 352 8.0 16.1 0.00 0.05 0.05 78 1017.6
20260506174003 10 62 3.2 16.1 0.00 0.05 0.05 78 1017.7
20260506173504 10 342 9.7 17.7 0.00 0.05 0.05 76 1017.6
20260506173017 9 24 6.4 17.7 0.00 0.05 0.05 78 1017.7
20260506172503 9 352 6.4 11.3 0.00 0.05 0.05 78 1017.4
20260506172006 9 11 4.8 14.5 0.00 0.05 0.05 78 1017.6
20260506171514 9 49 4.8 17.7 0.00 0.05 0.05 77 1017.4
20260506171004 9 67 8.0 17.7 0.00 0.05 0.05 78 1017.2
20260506170503 9 17 9.7 17.7 0.00 0.05 0.05 78 1017.1
20260506170009 8 21 6.4 19.3 0.00 0.05 0.05 80 1017.3
20260506165503 8 40 9.7 19.3 0.00 0.05 0.05 80 1017.4
20260506165003 8 13 11.3 19.3 0.00 0.05 0.05 79 1017.3
20260506164508 8 34 4.8 17.7 0.00 0.05 0.05 80 1017.6
20260506164002 8 24 11.3 19.3 0.00 0.05 0.05 81 1017.4
20260506163503 8 71 12.9 20.9 0.00 0.05 0.05 79 1017.2
20260506163008 8 24 9.7 20.9 0.00 0.05 0.05 80 1017.4
20260506162503 8 352 9.7 19.3 0.00 0.05 0.05 82 1017.0
20260506162006 8 36 14.5 19.3 0.00 0.05 0.05 82 1016.9
20260506161511 8 10 11.3 25.7 0.00 0.05 0.05 83 1016.7
20260506161005 8 44 17.7 25.7 0.00 0.05 0.05 80 1016.9
20260506160505 8 38 8.0 24.1 0.00 0.05 0.05 82 1017.1
20260506160012 8 48 9.7 20.9 0.00 0.05 0.05 83 1017.2
20260506155504 8 352 9.7 20.9 0.00 0.05 0.05 83 1017.4
20260506155006 8 53 8.0 22.5 0.00 0.05 0.05 85 1017.2
20260506154512 7 29 11.3 22.5 0.00 0.05 0.05 84 1017.0
20260506154006 7 42 11.3 22.5 0.00 0.05 0.05 84 1017.1
20260506153507 7 14 14.5 22.5 0.00 0.05 0.05 84 1016.9
20260506153013 7 42 14.5 19.3 0.00 0.05 0.05 84 1016.7
20260506152504 7 40 9.7 19.3 0.00 0.05 0.05 84 1017.1
20260506152003 7 12 9.7 17.7 0.00 0.05 0.05 85 1017.2
20260506151509 7 46 6.4 17.7 0.00 0.05 0.05 85 1017.2
20260506151003 7 31 9.7 17.7 0.00 0.05 0.05 85 1017.1
20260506150507 7 30 8.0 20.9 0.00 0.05 0.05 86 1017.0
20260506150012 7 43 6.4 20.9 0.00 0.05 0.05 87 1016.9
20260506145506 7 52 6.4 16.1 0.00 0.05 0.05 88 1016.7
20260506145008 7 22 6.4 17.7 0.00 0.05 0.05 88 1016.8
20260506144513 6 59 8.0 20.9 0.00 0.05 0.05 88 1016.7
20260506144003 6 36 12.9 19.3 0.00 0.05 0.05 87 1016.7
20260506143503 6 38 9.7 20.9 0.00 0.05 0.05 89 1016.4
20260506143023 6 342 12.9 20.9 0.00 0.05 0.05 89 1016.2
20260506142506 6 19 9.7 20.9 0.00 0.05 0.05 89 1016.3
20260506142008 6 360 11.3 17.7 0.00 0.05 0.05 89 1016.6
20260506141516 6 9 8.0 17.7 0.00 0.05 0.05 89 1016.6
20260506141011 6 345 8.0 16.1 0.00 0.05 0.05 89 1016.8
20260506140503 6 343 8.0 16.1 0.00 0.05 0.05 90 1016.7
20260506140014 6 59 8.0 17.7 0.00 0.05 0.05 90 1016.4
20260506135507 6 32 8.0 17.7 0.00 0.05 0.05 90 1016.5
20260506135003 6 24 11.3 19.3 0.00 0.05 0.05 90 1016.5
20260506134515 6 46 6.4 20.9 0.00 0.05 0.05 90 1016.6
20260506134008 6 28 11.3 20.9 0.00 0.05 0.05 89 1016.6
20260506133506 5 31 8.0 14.5 0.00 0.08 0.05 91 1016.7
20260506133018 5 26 6.4 14.5 0.00 0.08 0.05 90 1016.6
20260506132511 5 13 4.8 16.1 0.00 0.08 0.05 91 1016.7
20260506132007 5 349 8.0 14.5 0.00 0.08 0.05 91 1016.4
20260506131528 5 23 6.4 17.7 0.00 0.08 0.05 91 1016.2
20260506131005 5 15 6.4 17.7 0.00 0.08 0.05 90 1016.4
20260506130506 5 42 8.0 17.7 0.00 0.08 0.05 91 1016.4
20260506130016 5 325 6.4 17.7 0.00 0.08 0.05 91 1016.4
20260506125506 5 49 11.3 17.7 0.00 0.08 0.05 92 1016.0
20260506125009 5 40 6.4 16.1 0.00 0.08 0.05 92 1016.0
20260506124516 5 21 4.8 19.3 0.00 0.08 0.05 92 1016.1
20260506124007 5 326 9.7 19.3 0.00 0.08 0.05 92 1016.2
20260506123507 5 334 8.0 19.3 0.00 0.08 0.05 92 1016.1
20260506123020 5 338 8.0 19.3 0.00 0.08 0.05 92 1016.0
20260506122507 5 350 6.4 19.3 0.00 0.08 0.05 92 1015.9
20260506122010 5 350 8.0 12.9 0.00 0.08 0.05 92 1015.8
20260506121520 5 9 4.8 12.9 0.00 0.08 0.05 91 1015.6
20260506121005 5 339 4.8 16.1 0.00 0.08 0.05 91 1015.5
20260506120507 5 15 9.7 16.1 0.00 0.08 0.05 91 1015.4
20260506120020 5 40 6.4 16.1 0.00 0.08 0.05 91 1015.2
20260506115516 5 23 8.0 16.1 0.00 0.08 0.05 91 1014.9
20260506115007 5 45 8.0 17.7 0.00 0.08 0.05 91 1014.9
20260506114521 5 21 8.0 17.7 0.00 0.08 0.05 91 1015.0
20260506114007 5 41 8.0 14.5 0.00 0.08 0.05 91 1014.9
20260506113506 5 333 6.4 14.5 0.00 0.08 0.05 91 1014.5
20260506113018 5 27 6.4 14.5 0.00 0.08 0.05 91 1014.5
20260506112505 5 44 8.0 14.5 0.00 0.08 0.05 91 1014.6
20260506112009 5 19 4.8 16.1 0.00 0.08 0.05 91 1014.5
20260506111504 5 29 9.7 17.7 0.00 0.08 0.05 91 1014.3
20260506111004 5 24 11.3 17.7 0.00 0.08 0.05 92 1014.2
20260506110504 5 26 6.4 14.5 0.00 0.08 0.05 92 1014.2
20260506110006 5 30 6.4 14.5 0.00 0.08 0.05 92 1014.1
20260506105504 5 34 8.0 16.1 0.00 0.08 0.05 92 1013.8
20260506105010 5 45 6.4 16.1 0.00 0.08 0.05 92 1013.6
20260506104510 5 44 11.3 16.1 0.00 0.08 0.05 92 1013.7
20260506104002 5 46 8.0 16.1 0.00 0.08 0.05 92 1013.7
20260506103504 5 48 6.4 17.7 0.00 0.08 0.05 92 1013.5
20260506103016 5 49 8.0 17.7 0.00 0.08 0.05 92 1013.5
20260506102507 5 28 6.4 12.9 0.00 0.08 0.05 92 1013.7
20260506102006 5 50 8.0 17.7 0.00 0.08 0.05 92 1013.5
20260506101533 5 63 9.7 17.7 0.00 0.08 0.05 92 1013.2
20260506101007 5 18 8.0 16.1 0.00 0.08 0.05 91 1013.1
20260506100509 5 30 8.0 17.7 0.00 0.10 0.05 91 1013.0
20260506100004 5 19 6.4 17.7 0.00 0.18 0.05 91 1013.1
20260506095506 5 32 8.0 17.7 0.00 0.30 0.05 91 1013.2
20260506095004 5 60 9.7 16.1 0.00 0.30 0.05 92 1013.1
20260506094520 5 39 9.7 16.1 0.00 0.33 0.05 92 1013.2
20260506094004 5 352 8.0 17.7 0.00 0.33 0.05 92 1013.3
20260506093510 5 42 9.7 20.9 0.00 0.38 0.05 91 1013.2
20260506093015 5 22 6.4 22.5 0.00 0.48 0.05 92 1013.2
20260506092506 5 53 9.7 25.7 0.00 0.48 0.05 91 1013.4
20260506092011 5 67 12.9 25.7 0.00 0.48 0.05 91 1013.1
20260506091516 5 34 12.9 24.1 0.00 0.51 0.05 92 1013.1
20260506091007 5 49 11.3 24.1 0.00 0.51 0.05 92 1012.9
20260506090506 5 56 9.7 22.5 0.00 0.56 0.05 92 1012.9
20260506090026 5 20 9.7 22.5 0.00 0.61 0.05 92 1013.0
20260506085506 5 23 11.3 24.1 0.00 0.74 0.05 92 1013.0
20260506085007 5 31 14.5 25.7 0.00 0.89 0.05 92 1012.8
20260506084504 5 51 14.5 25.7 0.00 1.12 0.05 93 1012.7
20260506084004 5 44 12.9 20.9 0.00 1.24 0.05 93 1012.7
20260506083502 5 33 8.0 17.7 0.00 1.24 0.05 93 1012.7
20260506083011 5 13 8.0 20.9 0.00 1.27 0.05 94 1012.7
20260506082503 5 26 8.0 22.5 0.00 1.27 0.05 94 1012.4
20260506082006 5 57 12.9 22.5 0.00 1.27 0.05 94 1012.3
20260506081517 5 5 12.9 20.9 0.00 1.27 0.05 94 1012.6
20260506081006 5 24 8.0 14.5 0.00 1.32 0.05 94 1012.5
20260506080510 5 360 8.0 17.7 0.03 1.32 0.05 94 1012.7
20260506073510 5 32 8.0 19.3 0.05 1.40 0.05 94 1012.4
20260506073016 5 17 11.3 19.3 0.05 1.40 0.05 94 1012.3
20260506072504 5 10 11.3 22.5 0.05 1.40 0.05 94 1012.1
20260506072006 5 352 12.9 22.5 0.05 1.40 0.05 95 1011.9
20260506071513 5 5 11.3 20.9 0.05 1.40 0.05 95 1011.6
20260506071013 5 70 8.0 20.9 0.05 1.40 0.05 95 1011.9